IAVONS21 Weather Reports


Display with metric or nautical units.
time (UTC)temp
F
wind
direction
speed
MPH
gust
MPH
rain 1hr
in
rain 24hr
in
rain mn
in
humidity
%
barometer
mb
20260509124004 47 251 3.0 6.0 0.00 0.00 0.00 79 1028.0
20260509123508 47 268 2.0 4.0 0.00 0.00 0.00 79 1028.0
20260509123016 47 261 2.0 4.0 0.00 0.00 0.00 78 1028.0
20260509122512 47 267 2.0 4.0 0.00 0.00 0.00 79 1028.1
20260509122007 47 261 2.0 4.0 0.00 0.00 0.00 79 1028.1
20260509121529 47 249 2.0 5.0 0.00 0.00 0.00 79 1028.1
20260509121011 46 242 3.0 5.0 0.00 0.00 0.00 79 1028.0
20260509120508 46 249 2.0 5.0 0.00 0.00 0.00 79 1028.1
20260509120030 46 256 3.0 6.0 0.00 0.00 0.00 80 1028.1
20260509115515 46 264 3.0 6.0 0.00 0.00 0.00 81 1028.1
20260509115003 46 259 0.0 4.0 0.00 0.00 0.00 81 1028.1
20260509114527 46 267 2.0 4.0 0.00 0.00 0.00 81 1028.0
20260509114011 46 260 2.0 4.0 0.00 0.00 0.00 81 1028.0
20260509113506 46 260 2.0 4.0 0.00 0.00 0.00 81 1028.0
20260509113012 46 258 0.0 3.0 0.00 0.00 0.00 80 1027.9
20260509112508 46 254 0.0 4.0 0.00 0.00 0.00 80 1027.9
20260509112010 47 258 2.0 4.0 0.00 0.00 0.00 80 1027.8
20260509111516 47 249 2.0 4.0 0.00 0.00 0.00 80 1027.8
20260509111009 47 245 2.0 4.0 0.00 0.00 0.00 80 1027.7
20260509110509 47 250 2.0 4.0 0.00 0.00 0.00 80 1027.6
20260509110027 46 246 1.0 4.0 0.00 0.00 0.00 81 1027.6
20260509105508 47 252 1.0 3.0 0.00 0.00 0.00 80 1027.6
20260509105008 47 251 1.0 3.0 0.00 0.00 0.00 80 1027.6
20260509104524 47 250 0.0 0.0 0.00 0.00 0.00 79 1027.5
20260509104010 47 244 0.0 5.0 0.00 0.00 0.00 79 1027.5
20260509103511 47 244 0.0 5.0 0.00 0.00 0.00 79 1027.4
20260509103009 47 266 2.0 5.0 0.00 0.00 0.00 78 1027.3
20260509102505 48 252 2.0 5.0 0.00 0.00 0.00 78 1027.3
20260509102007 48 242 2.0 7.0 0.00 0.00 0.00 78 1027.3
20260509101516 48 263 3.0 7.0 0.00 0.00 0.00 78 1027.3
20260509101008 48 241 4.0 7.0 0.00 0.00 0.00 78 1027.3
20260509100509 48 241 3.0 8.0 0.00 0.00 0.00 78 1027.2
20260509100029 48 260 4.0 8.0 0.00 0.00 0.00 78 1027.3
20260509095508 48 256 3.0 7.0 0.00 0.00 0.00 77 1027.2
20260509095014 48 243 2.0 5.0 0.00 0.00 0.00 77 1027.2
20260509094528 48 248 2.0 5.0 0.00 0.00 0.00 76 1027.2
20260509094008 48 243 1.0 3.0 0.00 0.00 0.00 76 1027.2
20260509093508 49 238 0.0 7.0 0.00 0.00 0.00 76 1027.3
20260509093026 49 239 3.0 7.0 0.00 0.00 0.00 76 1027.3
20260509092516 49 246 2.0 7.0 0.00 0.00 0.00 76 1027.3
20260509092010 48 233 2.0 6.0 0.00 0.00 0.00 76 1027.3
20260509091528 48 232 2.0 5.0 0.00 0.00 0.00 76 1027.3
20260509091007 48 261 3.0 5.0 0.00 0.00 0.00 76 1027.2
20260509090509 49 239 2.0 8.0 0.00 0.00 0.00 76 1027.1
20260509090020 48 237 4.0 8.0 0.00 0.00 0.00 76 1027.0
20260509085507 49 257 4.0 8.0 0.00 0.00 0.00 76 1027.0
20260509085008 48 246 4.0 8.0 0.00 0.00 0.00 76 1027.0
20260509084527 49 249 4.0 8.0 0.00 0.00 0.00 76 1026.9
20260509084013 49 231 3.0 7.0 0.00 0.00 0.00 75 1026.9
20260509083509 49 266 3.0 7.0 0.00 0.00 0.00 74 1026.9
20260509083033 49 236 3.0 6.0 0.00 0.00 0.00 74 1026.9
20260509082511 49 253 3.0 5.0 0.00 0.00 0.00 74 1026.8
20260509082010 49 248 2.0 5.0 0.00 0.00 0.00 74 1026.7
20260509081530 49 254 0.0 8.0 0.00 0.00 0.00 74 1026.7
20260509081009 49 250 3.0 8.0 0.00 0.00 0.00 75 1026.7
20260509080511 49 262 3.0 6.0 0.00 0.00 0.00 76 1026.7
20260509080022 49 251 3.0 5.0 0.00 0.00 0.00 76 1026.7
20260509075507 49 250 2.0 4.0 0.00 0.00 0.00 76 1026.6
20260509075007 50 237 2.0 4.0 0.00 0.00 0.00 75 1026.6
20260509074516 50 237 3.0 5.0 0.00 0.00 0.00 75 1026.4
20260509074003 50 245 2.0 5.0 0.00 0.00 0.00 75 1026.3
20260509073503 50 243 2.0 5.0 0.00 0.00 0.00 75 1026.3
20260509073005 51 254 1.0 5.0 0.00 0.00 0.00 74 1026.3
20260509072502 51 241 1.0 4.0 0.00 0.00 0.00 73 1026.2
20260509072003 51 242 1.0 4.0 0.00 0.00 0.00 72 1026.2
20260509071506 52 243 1.0 4.0 0.00 0.00 0.00 72 1026.1
20260509071003 52 241 2.0 4.0 0.00 0.00 0.00 71 1025.9
20260509070506 52 239 2.0 4.0 0.00 0.00 0.00 71 1025.8
20260509070013 53 242 2.0 4.0 0.00 0.00 0.00 70 1025.8
20260509065507 53 241 2.0 4.0 0.00 0.00 0.00 69 1025.8
20260509065007 54 215 0.0 2.0 0.00 0.00 0.00 69 1025.8
20260509064522 53 204 0.0 2.0 0.00 0.00 0.00 69 1025.7
20260509064009 53 172 0.0 2.0 0.00 0.00 0.00 70 1025.8
20260509063510 53 157 0.0 4.0 0.00 0.00 0.00 69 1025.7
20260509063021 53 147 0.0 4.0 0.00 0.00 0.00 69 1025.7
20260509062503 54 121 1.0 4.0 0.00 0.00 0.00 69 1025.8
20260509062003 53 157 1.0 5.0 0.00 0.00 0.00 68 1025.8
20260509061502 54 146 1.0 5.0 0.00 0.00 0.00 68 1025.7
20260509061003 54 151 2.0 5.0 0.00 0.00 0.00 68 1025.6
20260509060503 54 156 2.0 8.0 0.00 0.00 0.00 68 1025.6
20260509060010 54 200 2.0 9.0 0.00 0.00 0.00 67 1025.6
20260509055507 54 147 3.0 10.0 0.00 0.00 0.00 67 1025.6
20260509055008 54 135 4.0 10.0 0.00 0.00 0.00 66 1025.5
20260509054512 54 170 2.0 6.0 0.00 0.00 0.00 67 1025.5
20260509054008 54 162 2.0 6.0 0.00 0.00 0.00 67 1025.5
20260509053507 54 158 2.0 8.0 0.00 0.00 0.00 66 1025.6
20260509053022 54 142 2.0 8.0 0.00 0.00 0.00 67 1025.5
20260509052509 54 127 2.0 10.0 0.00 0.00 0.00 66 1025.5
20260509052012 54 142 2.0 10.0 0.00 0.00 0.00 66 1025.5
20260509051523 55 145 3.0 9.0 0.00 0.00 0.00 66 1025.3
20260509051003 55 154 2.0 6.0 0.00 0.00 0.00 66 1025.4
20260509050503 55 158 3.0 8.0 0.00 0.00 0.00 65 1025.3
20260509050009 55 141 4.0 8.0 0.00 0.00 0.00 63 1025.3
20260509045503 55 108 2.0 9.0 0.00 0.00 0.00 64 1025.3
20260509045003 55 139 1.0 9.0 0.00 0.00 0.00 65 1025.4
20260509044510 56 134 2.0 8.0 0.00 0.00 0.00 63 1025.5
20260509044007 56 150 2.0 8.0 0.00 0.00 0.00 63 1025.4
20260509043505 57 136 4.0 9.0 0.00 0.00 0.00 63 1025.5
20260509043032 57 143 3.0 8.0 0.00 0.00 0.00 63 1025.5
20260509042510 57 151 2.0 6.0 0.00 0.00 0.00 63 1025.3
20260509042007 57 107 3.0 6.0 0.00 0.00 0.00 64 1025.3
20260509041520 57 131 1.0 4.0 0.00 0.00 0.00 64 1025.2
20260509041009 57 110 1.0 4.0 0.00 0.00 0.00 63 1025.3
20260509040507 57 112 1.0 4.0 0.00 0.00 0.00 64 1025.2
20260509040024 57 147 1.0 4.0 0.00 0.00 0.00 66 1025.1
20260509035510 57 121 1.0 4.0 0.00 0.00 0.00 64 1025.1
20260509035004 57 209 2.0 4.0 0.00 0.00 0.00 61 1025.1
20260509034510 57 169 2.0 6.0 0.00 0.00 0.00 62 1025.2
20260509034004 56 142 2.0 6.0 0.00 0.00 0.00 65 1025.2
20260509033509 56 247 0.0 6.0 0.00 0.00 0.00 64 1025.1
20260509033010 55 155 1.0 6.0 0.00 0.00 0.00 66 1025.3
20260509032511 55 263 2.0 4.0 0.00 0.00 0.00 63 1025.2
20260509032016 55 164 0.0 5.0 0.00 0.00 0.00 66 1025.0
20260509031522 55 250 1.0 5.0 0.00 0.00 0.00 65 1025.1
20260509031011 54 230 1.0 7.0 0.00 0.00 0.00 66 1025.1
20260509030511 54 248 2.0 7.0 0.00 0.00 0.00 65 1025.1
20260509030034 54 244 3.0 7.0 0.00 0.00 0.00 68 1025.1
20260509025507 54 220 3.0 7.0 0.00 0.00 0.00 65 1025.1
20260509025014 54 170 1.0 7.0 0.00 0.00 0.00 67 1025.2
20260509024526 53 256 5.0 7.0 0.00 0.00 0.00 66 1025.2
20260509024009 53 258 3.0 7.0 0.00 0.00 0.00 67 1025.2
20260509023503 53 215 3.0 7.0 0.00 0.00 0.00 68 1025.2
20260509023037 52 206 2.0 8.0 0.00 0.00 0.00 70 1025.3
20260509022507 52 222 2.0 8.0 0.00 0.00 0.00 71 1025.3
20260509022009 52 235 3.0 10.0 0.00 0.00 0.00 70 1025.5
20260509021516 52 249 4.0 10.0 0.00 0.00 0.00 71 1025.6
20260509021009 51 225 4.0 9.0 0.00 0.00 0.00 70 1025.6
20260509020512 51 236 4.0 7.0 0.00 0.00 0.00 72 1025.6
20260509020019 51 256 3.0 7.0 0.00 0.00 0.00 72 1025.7
20260509015510 51 243 3.0 7.0 0.00 0.00 0.00 72 1025.8
20260509015012 51 249 3.0 5.0 0.00 0.00 0.00 72 1025.8
20260509014528 51 244 0.0 4.0 0.00 0.00 0.00 73 1025.8
20260509014011 51 196 1.0 5.0 0.00 0.00 0.00 73 1025.9
20260509013509 50 241 1.0 5.0 0.00 0.00 0.00 73 1025.8
20260509013026 50 147 1.0 5.0 0.00 0.00 0.00 72 1025.8
20260509012510 50 165 2.0 5.0 0.00 0.00 0.00 72 1025.8
20260509012013 50 172 2.0 4.0 0.00 0.00 0.00 73 1025.8
20260509011531 50 180 1.0 3.0 0.00 0.00 0.00 75 1025.9
20260509011012 49 192 0.0 5.0 0.00 0.00 0.00 74 1026.0
20260509010515 49 172 2.0 5.0 0.00 0.00 0.00 75 1025.9
20260509010029 49 250 2.0 5.0 0.00 0.00 0.00 75 1025.8
20260509005511 48 129 1.0 4.0 0.00 0.00 0.00 76 1025.9
20260509005012 48 225 0.0 6.0 0.00 0.00 0.00 75 1025.9
20260509004533 48 156 1.0 5.0 0.00 0.00 0.00 76 1026.0
20260509004011 47 287 0.0 3.0 0.00 0.00 0.00 78 1026.0
20260509003511 47 269 0.0 3.0 0.00 0.00 0.00 79 1026.0
20260509003026 46 337 0.0 3.0 0.00 0.00 0.00 81 1025.9
20260509002516 46 31 0.0 3.0 0.00 0.00 0.00 82 1025.9
20260509002012 45 354 0.0 3.0 0.00 0.00 0.00 82 1025.8
20260509001528 45 251 0.0 4.0 0.00 0.00 0.00 82 1025.9
20260509001010 44 250 2.0 4.0 0.00 0.00 0.00 81 1025.8
20260509000509 44 266 1.0 4.0 0.00 0.00 0.00 83 1025.9
20260509000031 44 236 0.0 5.0 0.00 0.00 0.00 84 1025.8
20260508235508 44 287 2.0 5.0 0.00 0.00 0.00 84 1025.8
20260508235012 43 225 0.0 4.0 0.00 0.00 0.00 85 1025.9
20260508234521 43 172 1.0 4.0 0.00 0.00 0.00 86 1025.8
20260508234013 42 210 0.0 4.0 0.00 0.00 0.00 86 1025.8
20260508233510 42 249 2.0 7.0 0.00 0.00 0.00 86 1025.7
20260508233024 42 237 2.0 7.0 0.00 0.00 0.00 86 1025.7
20260508232511 42 260 2.0 5.0 0.00 0.00 0.00 88 1025.7
20260508232010 42 254 2.0 5.0 0.00 0.00 0.00 87 1025.7
20260508231530 41 282 1.0 5.0 0.00 0.00 0.00 87 1025.8
20260508231009 41 242 2.0 4.0 0.00 0.00 0.00 88 1025.7
20260508230513 41 268 1.0 0.0 0.00 0.00 0.00 88 1025.7
20260508230028 0 0.0 0.0 0.00 0.00 0.00 1025.5
20260508225511 0 0.0 0.0 0.00 0.00 0.00 1025.5
20260508225011 0 0.0 0.0 0.00 0.00 0.00 1025.5
20260508224534 40 0.0 0.0 0.00 0.00 0.00 89 1025.3
20260508224012 40 253 3.0 0.0 0.00 0.00 0.00 89 1025.3
20260508223509 0 0.0 0.0 0.00 0.00 0.00 1025.1
20260508223036 0 0.0 0.0 0.00 0.00 0.00 1025.2
20260508222513 0 0.0 0.0 0.00 0.00 0.00 1024.9
20260508222011 0 0.0 0.0 0.00 0.00 0.00 1024.9
20260508221534 0 0.0 0.0 0.00 0.00 0.00 1025.1
20260508221011 0 0.0 0.0 0.00 0.00 0.00 1025.0
20260508220511 0 0.0 0.0 0.00 0.00 0.00 1025.0
20260508220031 0 0.0 0.0 0.00 0.00 0.00 1025.0
20260508215512 0 0.0 0.0 0.00 0.00 0.00 91 1024.9
20260508215012 39 2.0 4.0 0.00 0.00 0.00 91 1024.7
20260508214531 39 276 1.0 4.0 0.00 0.00 0.00 91 1024.8
20260508214013 39 277 2.0 7.0 0.00 0.00 0.00 91 1024.9
20260508213510 39 268 1.0 8.0 0.00 0.00 0.00 91 1024.8
20260508213010 39 233 4.0 8.0 0.00 0.00 0.00 91 1024.8
20260508212513 39 251 1.0 7.0 0.00 0.00 0.00 91 1024.8
20260508212005 39 244 3.0 7.0 0.00 0.00 0.00 91 1024.7
20260508211506 39 276 2.0 6.0 0.00 0.00 0.00 91 1024.6
20260508211004 39 243 3.0 6.0 0.00 0.00 0.00 91 1024.4
20260508210510 39 245 3.0 6.0 0.00 0.00 0.00 91 1024.4
20260508210028 39 218 4.0 8.0 0.00 0.00 0.00 91 1024.4
20260508205505 39 253 3.0 8.0 0.00 0.00 0.00 91 1024.2
20260508205013 39 241 4.0 8.0 0.00 0.00 0.00 91 1024.3
20260508204532 39 240 2.0 8.0 0.00 0.00 0.00 91 1024.2
20260508204010 39 235 1.0 12.0 0.00 0.00 0.00 91 1024.1
20260508203511 39 239 6.0 10.0 0.00 0.00 0.00 91 1024.1
20260508203031 39 253 5.0 10.0 0.00 0.00 0.00 91 1024.0
20260508202508 39 262 1.0 7.0 0.00 0.00 0.00 91 1023.9
20260508202003 39 240 3.0 8.0 0.00 0.00 0.00 91 1023.9
20260508201503 39 228 2.0 9.0 0.00 0.00 0.00 91 1023.8
20260508201003 39 226 1.0 9.0 0.00 0.00 0.00 91 1023.8
20260508200509 39 216 5.0 9.0 0.00 0.00 0.00 91 1023.7
20260508200018 39 248 3.0 6.0 0.00 0.00 0.00 91 1023.7
20260508195510 39 237 2.0 7.0 0.00 0.00 0.00 91 1023.6
20260508195003 39 245 2.0 7.0 0.00 0.00 0.00 90 1023.5
20260508194511 39 215 2.0 9.0 0.00 0.00 0.00 90 1023.3
20260508194006 39 244 3.0 9.0 0.00 0.00 0.00 90 1023.2
20260508193511 39 248 3.0 12.0 0.00 0.00 0.00 90 1023.2
20260508193017 39 251 4.0 12.0 0.00 0.00 0.00 90 1023.1
20260508192508 39 241 3.0 8.0 0.00 0.00 0.00 91 1023.0
20260508192012 39 231 4.0 9.0 0.00 0.00 0.00 91 1023.0
20260508191531 39 240 4.0 9.0 0.00 0.00 0.00 91 1022.9
20260508191007 39 250 5.0 9.0 0.00 0.00 0.00 91 1022.9
20260508190512 38 259 3.0 7.0 0.00 0.00 0.00 90 1023.0
20260508190031 39 230 4.0 5.0 0.00 0.00 0.00 90 1023.0
20260508185509 39 239 1.0 4.0 0.00 0.00 0.00 90 1023.0
20260508185003 39 231 1.0 4.0 0.00 0.00 0.00 90 1023.0
20260508184507 39 254 0.0 3.0 0.00 0.00 0.00 89 1023.0
20260508184011 39 228 0.0 4.0 0.00 0.00 0.00 89 1023.0
20260508183506 39 172 0.0 4.0 0.00 0.00 0.00 89 1022.9
20260508183008 39 233 1.0 4.0 0.00 0.00 0.00 89 1022.7
20260508182513 39 206 1.0 6.0 0.00 0.00 0.00 89 1022.7
20260508182005 39 230 1.0 7.0 0.00 0.00 0.00 89 1022.6
20260508181542 39 214 1.0 7.0 0.00 0.00 0.00 89 1022.6
20260508181013 39 247 3.0 5.0 0.00 0.00 0.00 89 1022.5
20260508180510 40 210 2.0 7.0 0.00 0.00 0.00 89 1022.5
20260508180025 40 240 2.0 7.0 0.00 0.00 0.00 89 1022.5
20260508175510 40 251 1.0 5.0 0.00 0.00 0.00 88 1022.5
20260508175012 40 243 1.0 6.0 0.00 0.00 0.00 88 1022.5
20260508174507 40 263 2.0 6.0 0.00 0.00 0.00 89 1022.5
20260508174004 40 251 2.0 6.0 0.00 0.00 0.00 89 1022.5
20260508173503 40 241 3.0 9.0 0.00 0.00 0.00 89 1022.4
20260508173036 40 245 3.0 9.0 0.00 0.00 0.00 89 1022.5
20260508172509 40 260 6.0 9.0 0.00 0.00 0.00 89 1022.5
20260508172010 40 239 4.0 9.0 0.00 0.00 0.00 89 1022.6
20260508171534 40 245 3.0 9.0 0.00 0.00 0.00 89 1022.6
20260508171013 40 243 3.0 5.0 0.00 0.00 0.00 89 1022.6
20260508170507 40 248 3.0 5.0 0.00 0.00 0.00 89 1022.6
20260508170030 40 245 2.0 4.0 0.00 0.00 0.00 89 1022.7
20260508165513 40 268 2.0 4.0 0.00 0.00 0.00 89 1022.7
20260508165013 40 217 2.0 5.0 0.00 0.00 0.00 89 1022.7
20260508164526 40 259 2.0 5.0 0.00 0.00 0.00 89 1022.7
20260508164011 40 241 3.0 5.0 0.00 0.00 0.00 88 1022.7
20260508163513 40 206 1.0 4.0 0.00 0.00 0.00 88 1022.7
20260508163033 40 240 1.0 8.0 0.00 0.00 0.00 88 1022.6
20260508162510 40 237 2.0 8.0 0.00 0.00 0.00 88 1022.6
20260508162009 40 264 2.0 4.0 0.00 0.00 0.00 88 1022.6
20260508161531 41 244 2.0 4.0 0.00 0.00 0.00 88 1022.6
20260508161008 41 241 0.0 6.0 0.00 0.00 0.00 88 1022.7
20260508160506 41 233 1.0 6.0 0.00 0.00 0.00 88 1022.7
20260508160030 41 257 1.0 4.0 0.00 0.00 0.00 88 1022.7
20260508155509 41 241 0.0 4.0 0.00 0.00 0.00 88 1022.7
20260508155010 41 243 0.0 5.0 0.00 0.00 0.00 88 1022.7
20260508154520 41 241 2.0 5.0 0.00 0.00 0.00 88 1022.7
20260508154011 41 230 1.0 6.0 0.00 0.00 0.00 87 1022.7
20260508153511 41 243 2.0 6.0 0.00 0.00 0.00 87 1022.7
20260508153041 41 235 2.0 6.0 0.00 0.00 0.00 87 1022.7
20260508152514 41 185 2.0 6.0 0.00 0.00 0.00 87 1022.7
20260508152009 41 231 3.0 6.0 0.00 0.00 0.00 87 1022.7
20260508151527 41 238 2.0 5.0 0.00 0.00 0.00 87 1022.7
20260508151007 41 237 2.0 4.0 0.00 0.00 0.00 87 1022.7
20260508150511 41 246 1.0 4.0 0.00 0.00 0.00 87 1022.8
20260508150028 41 240 2.0 5.0 0.00 0.00 0.00 87 1022.8
20260508145507 41 245 2.0 7.0 0.00 0.00 0.00 87 1022.8
20260508145007 41 235 3.0 7.0 0.00 0.00 0.00 87 1022.7
20260508144519 41 256 3.0 8.0 0.00 0.00 0.00 87 1022.7
20260508144008 41 258 1.0 9.0 0.00 0.00 0.00 87 1022.6
20260508143508 41 260 5.0 9.0 0.00 0.00 0.00 86 1022.6
20260508143023 41 252 3.0 11.0 0.00 0.00 0.00 87 1022.5
20260508142511 41 249 4.0 11.0 0.00 0.00 0.00 86 1022.5
20260508142011 41 256 3.0 9.0 0.00 0.00 0.00 86 1022.6
20260508141530 41 243 3.0 9.0 0.00 0.00 0.00 86 1022.7
20260508141012 41 231 3.0 6.0 0.00 0.00 0.00 86 1022.6
20260508140510 41 236 2.0 5.0 0.00 0.00 0.00 86 1022.6
20260508140029 41 241 2.0 4.0 0.00 0.00 0.00 86 1022.6
20260508135514 41 244 2.0 6.0 0.00 0.00 0.00 86 1022.6
20260508135003 41 222 2.0 9.0 0.00 0.00 0.00 86 1022.6
20260508134505 41 237 3.0 8.0 0.00 0.00 0.00 87 1022.6
20260508134003 41 249 3.0 12.0 0.00 0.00 0.00 87 1022.5
20260508133507 42 220 5.0 10.0 0.00 0.00 0.00 87 1022.4
20260508133007 42 247 1.0 7.0 0.00 0.00 0.00 87 1022.5
20260508132503 42 247 2.0 6.0 0.00 0.00 0.00 87 1022.5
20260508132003 42 254 3.0 8.0 0.00 0.00 0.00 87 1022.5
20260508131503 42 250 2.0 8.0 0.00 0.00 0.00 87 1022.4
20260508131004 42 262 3.0 8.0 0.00 0.00 0.00 87 1022.3
20260508130504 42 227 4.0 8.0 0.00 0.00 0.00 87 1022.3
20260508130005 42 153 3.0 8.0 0.00 0.00 0.00 87 1022.3
20260508125504 42 198 2.0 11.0 0.00 0.00 0.00 86 1022.4
20260508125003 42 214 4.0 10.0 0.00 0.00 0.00 86 1022.3
20260508124508 42 197 3.0 9.0 0.00 0.00 0.00 86 1022.4